TimeCDT,TemperatureF,Dew PointF,Humidity,Sea Level PressureIn,VisibilityMPH,Wind Direction,Wind SpeedMPH,Gust SpeedMPH,PrecipitationIn,Events,Conditions,WindDirDegrees,DateUTC
12:53 AM,27.0,10.0,49,30.04,10.0,NNW,5.8,-,N/A,,Mostly Cloudy,340,2013-04-11 05:53:00
1:53 AM,28.0,10.9,49,30.01,10.0,North,5.8,-,N/A,,Overcast,350,2013-04-11 06:53:00
2:53 AM,28.9,10.9,47,29.96,10.0,NNW,6.9,-,N/A,,Overcast,330,2013-04-11 07:53:00
3:53 AM,27.0,10.9,51,29.92,10.0,NW,3.5,-,N/A,,Scattered Clouds,310,2013-04-11 08:53:00
4:53 AM,25.0,12.0,58,29.89,10.0,West,4.6,-,N/A,,Clear,260,2013-04-11 09:53:00
5:53 AM,21.0,10.0,63,29.90,10.0,WSW,5.8,-,N/A,,Clear,240,2013-04-11 10:53:00
6:53 AM,19.9,10.0,65,29.91,10.0,SSW,8.1,-,N/A,,Clear,210,2013-04-11 11:53:00
7:53 AM,21.9,12.0,66,29.88,10.0,SSW,6.9,-,N/A,,Clear,200,2013-04-11 12:53:00
8:53 AM,34.0,12.9,42,29.86,10.0,SW,12.7,-,N/A,,Clear,220,2013-04-11 13:53:00
9:53 AM,39.9,15.1,36,29.84,10.0,SW,16.1,-,N/A,,Clear,230,2013-04-11 14:53:00
10:53 AM,48.0,14.0,26,29.79,10.0,SW,20.7,27.6,N/A,,Clear,230,2013-04-11 15:53:00
12:53 PM,60.1,15.1,17,29.72,10.0,West,13.8,23.0,N/A,,Clear,260,2013-04-11 17:53:00
1:53 PM,63.0,15.1,16,29.68,10.0,West,10.4,38.0,N/A,,Clear,270,2013-04-11 18:53:00
2:53 PM,66.9,18.0,15,29.66,10.0,NW,13.8,21.9,N/A,,Partly Cloudy,320,2013-04-11 19:53:00
3:53 PM,66.9,25.0,21,29.67,10.0,North,21.9,32.2,N/A,,Clear,350,2013-04-11 20:53:00
4:53 PM,66.0,25.0,21,29.68,10.0,NNW,18.4,32.2,N/A,,Clear,330,2013-04-11 21:53:00
5:53 PM,64.0,25.0,23,29.71,10.0,North,13.8,24.2,N/A,,Clear,350,2013-04-11 22:53:00
6:53 PM,63.0,28.0,27,29.71,10.0,North,21.9,27.6,N/A,,Clear,360,2013-04-11 23:53:00
7:53 PM,60.1,28.0,30,29.75,10.0,North,13.8,-,N/A,,Clear,360,2013-04-12 00:53:00
8:53 PM,54.0,27.0,35,29.77,10.0,NNE,12.7,-,N/A,,Clear,20,2013-04-12 01:53:00
9:53 PM,52.0,28.0,40,29.81,10.0,NE,9.2,-,N/A,,Clear,40,2013-04-12 02:53:00
10:53 PM,48.0,28.0,46,29.83,10.0,North,8.1,-,N/A,,Scattered Clouds,10,2013-04-12 03:53:00
11:53 PM,46.9,27.0,46,29.84,10.0,North,5.8,-,N/A,,Clear,10,2013-04-12 04:53:00